STARLINK-32314, 61709

Orbit data source: Space-Track

STARLINK-32314, 61709 is a payload satellite owned by SpaceX/Seattle (US) in LEO that was launched on Wed, 30 Oct 2024 UTC via an FALCON 9 launch vehicle from the Air Force Eastern Test Range (AFETR). Payload-class satellites include a variety of spacecraft equipped with specific instruments for various scientific and technological missions. These include communications satellites like Starlink; space stations such as the ISS; scientific satellites like the Hubble; Earth observation satellites from companies like Planet Labs, Umbra, and HawkEye 360; GPS; miniature CubeSats for education and research; and military/defense satellites.

Loading next visibility...
Identifier
61709, 2024-196C
Orbit
LEO
Last TLE update
11 hours ago
Origin
Manufacturer
SpaceX/Seattle
Mission
Operational Commercial Communications
Bus & Motor
STARLINK V2M, Unknown motor
Mass
730 kg wet, ~700 kg dry
Launch date (UTC)
2024-10-30 (6 months ago)
Launch vehicle
FALCON 9
Launch site
Air Force Eastern Test Range (AFETR)
Object type
Payload
Rocket body
Debris
Shape & HBR
Box + 2 Pan, 29 m
Radar Cross Section
36.964 m², Large (>1 m²)

Expand to show TLE details & history

TLE from 11 hours ago
0 STARLINK-32314
1 61709U 24196C   25129.22172062 -.00000437  00000-0 -26424-5 0  9995
2 61709  53.1607  75.3848 0001154  95.6771 264.4361 15.30194975 30337
Epoch: 2025-05-09T05:19Z
Definitive object data (Epoch: 2025-05-09T05:19:16.661Z)
Latitude
-0.00006°
Longitude
128.28437°
Altitude
476.207 km
Speed
7.629 km/s
True Right ascension
05h 01m 32s
True Declination
0° 00' 00"
Sunlit
Object was in daylight at TLE epoch
Visualization TLE readout
Latitude
27.2415°
Longitude
148.68606°
Altitude
476.144 km
Speed
7.632 km/s
Apparent Right ascension
09h 03m 42s
Apparent Declination
-7° 08' 45"
Sunlit
Object is in daylight
Visualization observer readout
Local Sidereal Time
00:37:11
Azimuth
70.341° E
Elevation
-32.269°
Doppler factor
1
Orbital elements
Apogee altitude
476.277 km
Perigee altitude
474.695 km
Semi-major axis
6,853.623 km
Eccentricity
0.0001154
Inclination
53.1607°
RAAN
75.3848°
Arg. of periapsis
95.6771°
True anomaly
264.42294°
Mean anomaly
264.4361°
Eccentric anomaly
264.42952°
Mean motion
3.82528 °/min
BSTAR
-0.0000026424
Orbital period
94.11 mins
Loading maneuver chart data...
Loading SW <> Apogee altitude chart data...
Loading historical data...
Loading historical data...
Loading historical data...
Loading historical data...
Loading historical data...
Loading historical data...
Loading historical data...

STARLINK-32314 Visibility forecast

Observer location: undefined°, undefined°

Span
Click to sort rows by Start time (UTC) header in descending order
Start Az.
Max El. time (UTC)
Max El. Az.
Max El.
End time (UTC)
End Az.
6 mins2025-05-09 22:43:42.504Z210.416° SW2025-05-09 22:46:42.504Z144.44° SSE38.031°2025-05-09 22:49:42.504Z61.868° ENE
4 mins2025-05-10 00:23:42.504Z302.422° NW2025-05-10 00:24:42.504Z326.806° NNW22.159°2025-05-10 00:27:42.504Z26.66° NE
5 mins2025-05-10 05:19:42.504Z330.241° NNW2025-05-10 05:21:42.504Z28.425° NE35.353°2025-05-10 05:24:42.504Z105.745° ESE
|